Regional Weather Roundup
Issued by NWS

Home | Current Version | Previous Version | Text Only | Print | Product List | Glossary Off
Versions: 1 2 3 4 5 6 7 8 9 10 11 12 13 14 15 16 17 18 19 20 21 22 23 24 25 26 27 28 29 30 31 32 33 34 35 36 37 38 39 40 41 42 43 44 45 46 47 48 49 50

000
ASUS43 KDMX 220906
RWRIA

WEATHER ROUNDUP FOR IOWA
NATIONAL WEATHER SERVICE DES MOINES IA
400 AM CDT TUE MAY 22 2018

NOTE: "FAIR" INDICATES FEW OR NO CLOUDS BELOW 12,000 FEET WITH NO
SIGNIFICANT WEATHER AND/OR OBSTRUCTIONS TO VISIBILITY.

* - THESE STATIONS ARE NOT NWS STATIONS...THUS NOT UNDER NWS
QUALITY CONTROL.  THEY ALSO DO NOT REPORT WEATHER SUCH
AS PRECIPITATION OR FOG.

IAZ001>003-012>014-020>022-031>034-043>046-221000-
   NORTHWEST IOWA

CITY           SKY/WX    TMP DP  RH WIND       PRES   REMARKS
CARROLL *      CLOUDY   N/A N/A N/A CALM      30.01R
CHEROKEE *     FOG       54  54 100 CALM      30.01R VSB 1/4
DENISON *      CLOUDY    55  55 100 CALM      30.02R
LE MARS *      CLOUDY    54  54 100 CALM      29.99S FOG
ORANGE CITY *  FOG       55  54  94 E3        30.01R VSB 1/2
SHELDON *      FOG       55  55 100 SE6       29.99S VSB<1/4
SIOUX CITY     CLOUDY    59  55  87 SE5       29.98S
SPENCER        FOG       56  55  97 SE3       30.01S VSB 1/4
STORM LAKE *   FOG       54  52  94 SE3       30.01S VSB<1/4
$$

IAZ055>058-069>071-079>083-090>094-221000-
   SOUTHWEST IOWA

CITY           SKY/WX    TMP DP  RH WIND       PRES   REMARKS
ATLANTIC *     CLOUDY    57  57 100 NE3       30.00S
AUDUBON *      CLOUDY    57  54  88 CALM      30.01S
CLARINDA *       N/A     57  55  94 CALM      30.02R
COUNCIL BLFS * CLOUDY    61  61 100 SE7       29.99R
CRESTON *      CLOUDY    59  57  94 CALM      30.02S
HARLAN  *      CLOUDY    59  57  94 CALM      30.03R
LAMONI         CLOUDY    61  57  87 SW5       30.00F
RED OAK *      CLOUDY    59  57  94 CALM      30.00R
SHENANDOAH *   CLOUDY    63  59  88 CALM      29.99S
$$

IAZ047>049-059>061-072>074-084-221000-
   CENTRAL IOWA

CITY           SKY/WX    TMP DP  RH WIND       PRES   REMARKS
AMES           FOG       55  54  96 CALM      30.00F VSB 1/4
ANKENY *       CLOUDY    59  57  94 CALM      30.01S FOG
BOONE *        FOG       57  57 100 CALM      30.00S VSB<1/4
CHARITON *     PTCLDY    59  59 100 W6        30.00S FOG
DES MOINES     MOCLDY    60  59  96 CALM      29.99F
GRINNELL*      CLOUDY    58  57  97 CALM      30.02R FOG
KNOXVILLE *    CLOUDY    59  57  94 W5        29.99S FOG
MARSHALLTOWN   FOG       55  55 100 CALM      30.00S VSB 1/4
NEWTON *       CLOUDY    59  59 100 CALM      30.01S FOG
PELLA *        FOG       59  58  98 CALM      30.01S VSB 1/4
PERRY *        MOCLDY    55  55  99 CALM      30.01S
$$

IAZ004>006-015-016-023>025-035-036-221000-
   NORTH CENTRAL IOWA

CITY           SKY/WX    TMP DP  RH WIND       PRES   REMARKS
ALGONA *       CLOUDY    55  55 100 CALM      30.02S FOG
CLARION *      FOG       54  54 100 CALM      30.01F VSB<1/4
ESTHERVILLE    FOG       54  54 100 CALM      30.01S VSB 1/4
FORT DODGE *   FOG       54  53  97 CALM      30.01F VSB 1/4
MASON CITY     CLOUDY    55  55 100 CALM      30.03S FOG
FOREST CITY *  FOG       52  52 100 CALM      30.02S VSB 1/4
WEBSTER CITY * FOG       54  54 100 CALM      29.99S VSB<1/4
IOWA FALLS *   FOG       55  54  98 CALM      30.02F VSB 1/4
$$

IAZ007>011-017>019-026>030-037>042-050>054-066-221000-
   NORTHEAST IOWA

CITY           SKY/WX    TMP DP  RH WIND       PRES   REMARKS
CEDAR RAPIDS   FOG       55  55 100 NW5       29.99S VSB 1/4
CHARLES CITY * CLOUDY    57  57 100 CALM      30.02S FOG
CLINTON *      CLOUDY   N/A N/A N/A NW9       30.00R
DECORAH *      FOG       57  57 100 NW5       30.00S VSB<1/4
DUBUQUE        CLOUDY    59  58  96 W3        29.99F FOG
MONTICELLO *   FAIR      57  57 100 W3        30.00R
OELWEIN *      CLOUDY    59  57  94 W6        30.02R
WATERLOO       CLOUDY    59  59 100 CALM      30.00S FOG
$$

IAZ064-065-067-068-078-221000-
   EAST CENTRAL IOWA

CITY           SKY/WX    TMP DP  RH WIND       PRES   REMARKS
DAVENPORT      FAIR      59  57  93 NW5       30.01S FOG
IOWA CITY      FAIR      59  57  93 CALM      30.01S
MT. PLEASANT * CLEAR     55  55 100 CALM      30.00S FOG
MUSCATINE *    CLOUDY    59  57  94 CALM      30.00R FOG
QUAD CITIES    FAIR      59  58  96 NW3       29.98F FOG
$$

IAZ062-063-075>077-085>089-095>099-221000-
   SOUTHEAST IOWA

CITY           SKY/WX    TMP DP  RH WIND       PRES   REMARKS
BURLINGTON     CLEAR     57  56  96 CALM      30.00R FOG
FAIRFIELD *    FOG       55  55 100 CALM      30.00R VSB 1/4
FORT MADISON * FOG       57  57 100 CALM      30.01S VSB 1/4
KEOKUK *       CLEAR     57  57 100 CALM      30.00R FOG
OSKALOOSA *    FOG       57  57  98 CALM      30.01S VSB 3/4
CENTERVILLE *    N/A     57  57 100 CALM      30.02S
OTTUMWA        FOG       57  55  93 CALM      30.00F VSB 1/4
WASHINGTON *   FOG       55  55 100 CALM      30.01R VSB 1/4
$$

ABBREVIATIONS USED IN REMARKS
   TC - TEMPERATURES IN CELSIUS
  WCI - WIND CHILL INDEX
   HX - HEAT INDEX
  VSB - VISIBILITY
$$





USA.gov is the U.S. government's official web portal to all federal, state and local government web resources and services.